This is the latest recevied weather packets stored in our database for station/object K5NCO. If no packets are shown the sender has not sent any weather packets the latest 10 day(s).
| Time | Temp. | Humidity | Pressure | Rain* | Wind** | Luminosity | Snow |
|---|---|---|---|---|---|---|---|
| 1778021978 | 28.33° C | 75% | 1007.1 hPa | 0 mm | - | 145 W/m² | - |
| 1778021675 | 28.89° C | 74% | 1007.1 hPa | 0 mm | - | 172 W/m² | - |
| 1778021371 | 28.33° C | 73% | 1007 hPa | 0 mm | - | 206 W/m² | - |
| 1778021068 | 28.33° C | 74% | 1007.1 hPa | 0 mm | - | 166 W/m² | - |
| 1778020765 | 28.33° C | 73% | 1007.2 hPa | 0 mm | - | 241 W/m² | - |
| 1778020462 | 28.33° C | 74% | 1007.1 hPa | 0 mm | - | 208 W/m² | - |
| 1778020158 | 28.33° C | 74% | 1007.1 hPa | 0 mm | - | 174 W/m² | - |
| 1778019855 | 28.33° C | 74% | 1006.9 hPa | 0 mm | - | 291 W/m² | - |
| 1778019550 | 28.33° C | 74% | 1006.8 hPa | 0 mm | - | 221 W/m² | - |
| 1778019248 | 28.33° C | 74% | 1007.2 hPa | 0 mm | - | 361 W/m² | - |
| 1778018945 | 28.33° C | 74% | 1007.1 hPa | 0 mm | - | 290 W/m² | - |
| 1778018642 | 28.33° C | 74% | 1007.2 hPa | 0 mm | - | 283 W/m² | - |
| 1778018340 | 28.89° C | 71% | 1007.4 hPa | 0 mm | - | 327 W/m² | - |
| 1778018038 | 28.89° C | 72% | 1007.4 hPa | 0 mm | - | 320 W/m² | - |
| 1778017735 | 28.89° C | 71% | 1007.3 hPa | 0 mm | - | 467 W/m² | - |
| 1778017433 | 28.33° C | 71% | 1007.6 hPa | 0 mm | - | 438 W/m² | - |
| 1778017130 | 28.33° C | 72% | 1007.7 hPa | 0 mm | - | 459 W/m² | - |
| 1778016828 | 28.33° C | 72% | 1007.4 hPa | 0 mm | - | 453 W/m² | - |
| 1778016523 | 28.33° C | 72% | 1007.6 hPa | 0 mm | - | 508 W/m² | - |
| 1778016220 | 28.33° C | 72% | 1007.6 hPa | 0 mm | - | 455 W/m² | - |
| 1778015916 | 28.33° C | 72% | 1007.8 hPa | 0 mm | - | 499 W/m² | - |
| 1778015615 | 27.78° C | 74% | 1007.9 hPa | 0 mm | - | 521 W/m² | - |
| 1778015311 | 27.78° C | 74% | 1007.7 hPa | 0 mm | - | 568 W/m² | - |
| 1778015008 | 27.78° C | 73% | 1007.8 hPa | 0 mm | - | 555 W/m² | - |
| 1778014704 | 27.78° C | 75% | 1008 hPa | 0 mm | - | 461 W/m² | - |
* Rain latest hour (hover to see other rain measurements)
** Current wind speed in m/s (hover to see current wind gust speed)